Погода в Александрове

Россия / Костромская область     57°46′18″N   41°43′15″E
темп.,
°C
ветер,
м/с
пор.,
м/с
влажн.,
%
обл.,
%
осадки,
мм/ч
давл.,
гПа
погр.,
м
7 мая, пт
пт700:00+10ююз51284100 0.1 10051053
03:00+7юз389098 0.3 1007342
06:00+7юз3889100 0.0 1007489
09:00+9зюз4573100 0.1 10081019
12:00+9зюз4664100 0.1 10091264
15:00+12з584881 0.1 10102189
18:00+11зюз29583 0.3 10111836
21:00+6ююз24740 0.3 101369
8 мая, сб
сб800:00+4ю24775 0.0 101465
03:00+4ююв3979100 0.0 1015168
06:00+6ююв31075100 0.0 1014262
09:00+11ююв51053100 0.0 10131245
12:00+14ююв61044100 0.0 10112006
15:00+11юв51260100 0.1 10101733
18:00+9ююв51286100 1.3 10091274
21:00+8юв61493100 7.4 1006938
9 мая, вс
вс900:00+8ююв41296100 2.6 1005727
03:00+9юв3998100 4.4 1004522
06:00+9ююв3799100 0.4 1004374
09:00+11ю3695100 1.8 1005482
12:00+12ю3683100 1.2 1007829
15:00+8сз5794100 2.8 1010488
18:00+5ссз51194100 0.0 1014695
21:00+5ссз51194100 0.0 1017871
10 мая, пн
пн1000:00+5ссз4119339 0.0 1019658
03:00+3ссз412930 0.0 1023416
06:00+4ссз311860 0.0 1026432
09:00+10с46540 0.0 1027830
12:00+13с23422 0.0 10281275
15:00+14ссз233999 0.0 10281467
18:00+14ссз12557 0.0 1029240
21:00+8сз117263 0.0 103010
11 мая, вт
вт1100:00+6с11745 0.0 103110
03:00+6всв007337 0.0 103210
06:00+8юв117090 0.0 103238
09:00+14ю125295 0.0 1032469
12:00+17ю1147100 0.0 1032975
15:00+18юв0148100 0.0 10311008
18:00+17в116327 0.0 1030104
21:00+12юв117830 0.0 103010